Location: Jaite
(41.2884°N, 81.5737°W)
Time: 08:12:31
(UTC+00:00)

NOSS 2-2 (C) - Pass Details

Date: 15 November 2025
Orbit: 381 x 1696 km, 63.3° (Epoch: 13 December)

Event Time Altitude Azimuth Distance (km) Brightness Sun altitude
Exits shadow 11:40:19 - 327° (NNW) 2,374 6.1 -6.9°
Reaches altitude 10° 11:41:35 10° 328° (NNW) 1,856 5.6 -6.6°
Maximum altitude 11:45:44 77° 56° (NE) 714 4.0 -5.9°
Drops below altitude 10° 11:51:33 10° 142° (SE) 2,590 7.8 -4.9°
Sets 11:54:35 0° 144° (SE) 3,767 8.7 -4.4°
